Simultaneous Nadir Overpasses (SNOs) Predictions

Prediction of SNOs between METOP-A and NOAA-19 Satellite Orbit:

Table of predicted SNOs for the next 14.0 days since TLE Epoch: 11/16/2019
Index Date (METOP-A) Time (METOP-A) Lat,Lon (METOP-A) SZA (METOP-A ) Date (NOAA-19) Time (NOAA-19) Lat,Lon (NOAA-19) SZA (NOAA-19 ) Distance(km) Time Diff (sec)
1 11/17/2019 00:36:07 80.11,-175.88 99.33 11/17/2019 00:35:01 80.09,-175.78 99.30 3.14 66
2 11/17/2019 01:26:48 -80.11, -8.56 80.67 11/17/2019 01:26:05 -80.09, -8.50 80.70 3.09 43
3 11/17/2019 02:17:29 80.10, 158.66 99.33 11/17/2019 02:17:02 80.10, 158.63 99.32 0.87 27
4 11/17/2019 03:08:10 -80.10, -34.02 80.67 11/17/2019 03:08:06 -80.09, -34.09 80.68 1.56 4
5 11/17/2019 03:58:51 80.09, 133.21 99.33 11/17/2019 03:59:02 80.08, 133.36 99.33 3.20 11
6 11/17/2019 04:49:32 -80.09, -59.47 80.67 11/17/2019 04:50:06 -80.08, -59.36 80.67 2.62 34
7 11/17/2019 05:40:13 80.08, 107.75 99.33 11/17/2019 05:41:03 80.09, 107.78 99.35 0.96 50
8 11/17/2019 06:30:54 -80.08, -84.93 80.67 11/17/2019 06:32:07 -80.08, -84.95 80.65 0.68 73
9 11/28/2019 00:58:54 -80.14, -1.50 78.33 11/28/2019 00:57:53 -80.13, -1.60 78.35 2.18 61
10 11/28/2019 01:49:35 80.12, 165.63 101.66 11/28/2019 01:48:52 80.13, 165.59 101.66 1.65 43
11 11/28/2019 02:40:16 -80.13, -26.96 78.33 11/28/2019 02:39:53 -80.11, -26.87 78.35 2.32 23
12 11/28/2019 03:30:57 80.11, 140.17 101.65 11/28/2019 03:30:52 80.12, 140.33 101.67 3.09 5
13 11/28/2019 04:21:38 -80.12, -52.42 78.34 11/28/2019 04:21:54 -80.12, -52.47 78.33 0.97 16
14 11/28/2019 05:12:18 80.13, 115.01 101.69 11/28/2019 05:12:52 80.10, 115.06 101.68 2.97 34
15 11/28/2019 06:03:00 -80.10, -77.88 78.34 11/28/2019 06:03:54 -80.10, -77.74 78.32 2.64 54




NCC Satellite Simultaneous Nadir Overpasses (SNOs) Prediction Service
